Notices

What's New in latest Release from April 7th, 2021:

- Updated Glossary, including Speed of Maximum Gust, and Total Hourly Precipitation

- Updated national and regional climate services offices contacts and prices information

- Addition of station inventory lists for 1981-2010, 1971-2000, and 1961-1990 Normals.

If you haven't already, please take our survey and provide feedback about our website: https://eccc.sondage-survey.ca/f/LanguageSelection.aspx?s=442ca660-fcf1-47c0-95a9-59707d6fd709

Hourly Data Report for January 23, 2004

TORONTO CITY
ONTARIO

43°40'00.000" N
79°24'00.000" W
112.50 m
6158355
71508
XTO

Download Data

Hourly Data (January 2004)
Hourly Data Report for January 23, 2004
TIME
LST
Temp Definition
°C
Dew Point Definition
°C
Rel Hum Definition
%
Precip. Amount Definition
mm

Wind Dir Definition
10's deg

Wind Spd Definition
km/h
Visibility Definition
km
Stn Press Definition
kPa
Hmdx Definition


Wind Chill Definition


Weather Definition


00:00 -12.6 -15.6 78   LegendMM LegendMM LegendMM 99.93     LegendNANA
01:00 -12.8 -15.2 82   LegendMM LegendMM LegendMM 99.91     LegendNANA
02:00 -12.5 -16.1 74   LegendMM LegendMM LegendMM 99.89     LegendNANA
03:00 -12.5 -16.7 71   LegendMM LegendMM LegendMM 99.88     LegendNANA
04:00 -12.4 -17.0 68   LegendMM LegendMM LegendMM 99.87     LegendNANA
05:00 -13.1 -17.6 69   LegendMM LegendMM LegendMM 99.90     LegendNANA
06:00 -13.3 -17.7 69   LegendMM LegendMM LegendMM 99.92     LegendNANA
07:00 -13.6 -17.3 74   LegendMM LegendMM LegendMM 99.96     LegendNANA
08:00 -13.8 -17.2 75   LegendMM LegendMM LegendMM 100.01     LegendNANA
09:00 -13.4 -16.9 75   LegendMM LegendMM LegendMM 100.08     LegendNANA
10:00 -13.0 -17.1 71   LegendMM LegendMM LegendMM 100.13     LegendNANA
11:00 -12.4 -19.0 58   LegendMM LegendMM LegendMM 100.18     LegendNANA
12:00 -11.7 -19.1 54   LegendMM LegendMM LegendMM 100.14     LegendNANA
13:00 -11.4 -19.5 51   LegendMM LegendMM LegendMM 100.10     LegendNANA
14:00 -11.2 -19.0 53   LegendMM LegendMM LegendMM 100.03     LegendNANA
15:00 -10.9 -18.1 55   LegendMM LegendMM LegendMM 100.00     LegendNANA
16:00 -10.5 -17.4 57   LegendMM LegendMM LegendMM 99.99     LegendNANA
17:00 -11.1 -17.9 57   LegendMM LegendMM LegendMM 99.96     LegendNANA
18:00 -11.2 -16.8 63   LegendMM LegendMM LegendMM 99.95     LegendNANA
19:00 -11.4 -16.9 64   LegendMM LegendMM LegendMM 99.95     LegendNANA
20:00 -11.5 -17.2 63   LegendMM LegendMM LegendMM 99.93     LegendNANA
21:00 -11.5 -16.0 69   LegendMM LegendMM LegendMM 99.92     LegendNANA
22:00 -11.7 -15.1 76   LegendMM LegendMM LegendMM 99.89     LegendNANA
23:00 -12.0 -14.7 80   LegendMM LegendMM LegendMM 99.86     LegendNANA

Notes on Data Quality.

Legend

  • E = Estimated
  • M = Missing
  • NA = Not Available*
  • [empty] = Indicates an unobserved value
Date modified: